Weather in Peterhof

Russia / Saint-Petersburg and Leningrad Oblast     59°53′02″N   29°54′31″E
temp.,
°C
wind,
m/s
gust,
m/s
humid.,
%
clouds,
%
prec.,
mm/h
press.,
hPa
HPBL,
m
29 november, mon
mon2900:00−3e4891100 0.2 1008688
03:00−5e51081100 0.3 1009602
06:00−4e61179100 0.0 1008743
09:00−4e71275100 0.0 1008731
12:00−4ene71277100 0.0 1007663
15:00−4ene71178100 0.0 1004636
18:00−4ene81381100 0.0 1000620
21:00−4ene91591100 0.4 996650
30 november, tue
tue3000:00−3ene91493100 2.3 991668
03:00−3ene81394100 6.9 986596
06:00−2ne71295100 4.2 981568
09:00−1ne61096100 8.5 978513
12:00−1nne5995100 1.6 976592
15:00−1nnw71095100 2.8 975650
18:00−4nnw71093100 1.0 975438
21:00−4nw7988100 1.6 976573
1 december, wed
wed100:00−4nw7108698 0.3 977848
03:00−4nw81082100 0.3 978888
06:00−4nw9118299 0.1 980906
09:00−4nw9118097 0.2 983878
12:00−5nw8117881 0.1 985895
15:00−5wnw8117789 0.1 987928
18:00−4wnw8117657 0.1 988858
21:00−4wnw7117557 0.1 989819
2 december, thu
thu200:00−4wnw597633 0.0 990610
03:00−6w37758 0.0 991296
06:00−7wsw358475 0.0 991134
09:00−8sse1288100 0.0 99165
12:00−8se3486100 0.0 992150
15:00−7e4685100 0.0 990185
18:00−6e5892100 0.0 990262
21:00−4e5893100 0.1 989371
3 december, fri
fri300:00−4ene599395 0.3 989427
03:00−3ene5894100 0.6 989434
06:00−3e489391 0.3 989383
09:00−4e589387 0.4 990353
12:00−3ene5995100 0.6 989361
15:00−2ene5896100 2.8 988343
18:00−1ene3597100 0.8 988236
21:00−2nne3495100 1.3 989204